Regional Weather Roundup
Issued by NWS

Home | Current Version | Previous Version | Graphics & Text | Print | Product List | Glossary On
Versions: 1 2 3 4 5 6 7 8 9 10 11 12 13 14 15 16 17 18 19 20 21 22 23 24 25 26 27 28 29 30 31 32 33 34 35 36 37 38 39 40 41 42 43 44 45 46 47 48 49 50
778
ASUS43 KLSX 240957
RWRMO

WEATHER SUMMARY FOR MISSOURI
NATIONAL WEATHER SERVICE SPRINGFIELD MO
400 AM CST FRI NOV 24 2017

NOTE: "FAIR" INDICATES FEW OR NO CLOUDS BELOW 12,000 FEET WITH NO
       SIGNIFICANT WEATHER AND/OR OBSTRUCTIONS TO VISIBILITY.
       CURRENT SKY AND/OR WEATHER CONDITIONS ARE NOT AVAILABLE FOR
       CHILLICOTHE AND FARMINGTON.

MOZ001>031-035>038-043-044-053-054-241100-
...NORTHERN AND WESTERN MISSOURI...

CITY           SKY/WX    TMP DP  RH WIND       PRES   REMARKS
KANSAS CTY INT CLEAR     51  34  52 S13       29.76F
LEE`S SUMMIT   PTCLDY    49  33  54 SW14      29.79F
ST JOSEPH      CLEAR     49  36  61 S12       29.73F
CHILLICOTHE      N/A     46  35  65 S6        29.78F

$$
MOZ066>068-077>081-088>096-101>105-241100-
...SOUTHWEST MISSOURI...

CITY           SKY/WX    TMP DP  RH WIND       PRES   REMARKS
SPRINGFIELD    CLOUDY    40  31  70 S7        29.90F
JOPLIN         CLEAR     50  32  50 S12       29.89F

$$
MOZ032>034-039>042-045>050-055>058-069>072-241100-
...CENTRAL MISSOURI...

CITY           SKY/WX    TMP DP  RH WIND       PRES   REMARKS
COLUMBIA       NOT AVBL
JEFFERSON CITY CLOUDY    35  31  85 E7        29.87F WCI  29
ROLLA          CLOUDY    44  32  62 S12       29.89F
SEDALIA        CLOUDY    53  34  48 SW14      29.84F
WARRENSBURG    MOCLDY    45  32  61 S6        29.83S

$$
MOZ051-052-059>065-241100-
...EAST CENTRAL MISSOURI...

CITY           SKY/WX    TMP DP  RH WIND       PRES   REMARKS
ST LOUIS INTL  PTCLDY    39  30  70 SW5       29.89F

$$
MOZ072>076-082>087-097>100-106>115-241100-
...SOUTH CENTRAL AND SOUTHEAST MISSOURI...

CITY           SKY/WX    TMP DP  RH WIND       PRES   REMARKS
CAPE GIRARDEAU CLOUDY    33  27  78 S5        29.95F WCI  29
POPLAR BLUFF   CLOUDY    29  27  92 CALM      29.95F
WEST PLAINS    CLOUDY    43  29  57 W8        29.93F

$$



USA.gov is the U.S. government's official web portal to all federal, state and local government web resources and services.